| time (UTC) | temp F | wind direction | speed MPH | gust MPH | rain 1hr in | rain 24hr in | rain mn in | humidity % | barometer mb |
| 20260502224049 | 60 | 0.0 | 0.0 | 0.00 | 0.00 | 0.00 | 32 | 1017.1 | |
| 20260502223024 | 60 | 0.0 | 0.0 | 0.00 | 0.00 | 0.00 | 32 | 1017.1 | |
| 20260502222040 | 61 | 0.0 | 0.0 | 0.00 | 0.00 | 0.00 | 31 | 1017.1 | |
| 20260502221024 | 61 | 0.0 | 0.0 | 0.00 | 0.00 | 0.00 | 30 | 1017.1 | |
| 20260502220041 | 61 | 0.0 | 0.0 | 0.00 | 0.00 | 0.00 | 29 | 1017.1 | |
| 20260502215016 | 61 | 0.0 | 0.0 | 0.00 | 0.00 | 0.00 | 29 | 1017.1 | |
| 20260502214056 | 61 | 0.0 | 0.0 | 0.00 | 0.00 | 0.00 | 29 | 1017.1 | |
| 20260502213016 | 62 | 0.0 | 0.0 | 0.00 | 0.00 | 0.00 | 29 | 1017.1 | |
| 20260502212044 | 62 | 0.0 | 0.0 | 0.00 | 0.00 | 0.00 | 28 | 1017.4 | |
| 20260502211032 | 62 | 0.0 | 0.0 | 0.00 | 0.00 | 0.00 | 28 | 1018.1 | |
| 20260502210026 | 62 | 0.0 | 0.0 | 0.00 | 0.00 | 0.00 | 27 | 1018.1 | |
| 20260502205038 | 62 | 0.0 | 0.0 | 0.00 | 0.00 | 0.00 | 27 | 1017.6 | |
| 20260502204038 | 63 | 0.0 | 0.0 | 0.00 | 0.00 | 0.00 | 26 | 1017.1 | |
| 20260502203052 | 63 | 0.0 | 0.0 | 0.00 | 0.00 | 0.00 | 26 | 1017.1 | |
| 20260502202015 | 64 | 0.0 | 0.0 | 0.00 | 0.00 | 0.00 | 25 | 1017.6 | |
| 20260502201031 | 64 | 0.0 | 0.0 | 0.00 | 0.00 | 0.00 | 25 | 1018.1 | |
| 20260502200042 | 64 | 0.0 | 0.0 | 0.00 | 0.00 | 0.00 | 24 | 1018.1 | |
| 20260502195024 | 65 | 0.0 | 0.0 | 0.00 | 0.00 | 0.00 | 24 | 1018.1 | |
| 20260502194049 | 65 | 0.0 | 0.0 | 0.00 | 0.00 | 0.00 | 23 | 1018.1 | |
| 20260502193022 | 65 | 0.0 | 0.0 | 0.00 | 0.00 | 0.00 | 23 | 1018.1 | |
| 20260502192021 | 66 | 203 | 0.0 | 1.0 | 0.00 | 0.00 | 0.00 | 20 | 1018.1 |
| 20260502191044 | 66 | 0.0 | 0.0 | 0.00 | 0.00 | 0.00 | 17 | 1018.1 | |
| 20260502190028 | 67 | 0.0 | 0.0 | 0.00 | 0.00 | 0.00 | 14 | 1018.1 | |
| 20260502185125 | 67 | 0.0 | 0.0 | 0.00 | 0.00 | 0.00 | 10 | 1018.1 | |
| 20260502184050 | 68 | 0.0 | 0.0 | 0.00 | 0.00 | 0.00 | 7 | 1018.1 | |
| 20260502183036 | 69 | 0.0 | 0.0 | 0.00 | 0.00 | 0.00 | 5 | 1018.1 | |
| 20260502182023 | 69 | 0.0 | 0.0 | 0.00 | 0.00 | 0.00 | 5 | 1018.1 | |
| 20260502181028 | 70 | 0.0 | 0.0 | 0.00 | 0.00 | 0.00 | 3 | 1018.1 | |
| 20260502164044 | 73 | 206 | 1.0 | 2.0 | 0.00 | 0.00 | 0.00 | 2 | 1018.1 |
| 20260502163107 | 74 | 226 | 1.0 | 2.0 | 0.00 | 0.00 | 0.00 | 2 | 1018.1 |
| 20260502162034 | 74 | 228 | 1.0 | 1.0 | 0.00 | 0.00 | 0.00 | 2 | 1018.1 |
| 20260502161022 | 74 | 170 | 1.0 | 2.0 | 0.00 | 0.00 | 0.00 | 2 | 1018.1 |
| 20260502152044 | 77 | 225 | 1.0 | 1.0 | 0.00 | 0.00 | 0.00 | 2 | 1019.1 |
| 20260502151038 | 78 | 209 | 1.0 | 2.0 | 0.00 | 0.00 | 0.00 | 2 | 1019.1 |
| 20260502123020 | 78 | 218 | 2.0 | 3.0 | 0.00 | 0.00 | 0.00 | 21 | 1021.1 |
| 20260502122044 | 76 | 261 | 1.0 | 2.0 | 0.00 | 0.00 | 0.00 | 22 | 1021.1 |
| 20260502121045 | 76 | 218 | 1.0 | 2.0 | 0.00 | 0.00 | 0.00 | 22 | 1021.1 |
| 20260502115032 | 74 | 124 | 2.0 | 5.0 | 0.00 | 0.00 | 0.00 | 23 | 1021.1 |
| 20260502114043 | 74 | 229 | 2.0 | 3.0 | 0.00 | 0.00 | 0.00 | 23 | 1021.1 |
| 20260502113036 | 74 | 206 | 2.0 | 2.0 | 0.00 | 0.00 | 0.00 | 24 | 1021.1 |
| 20260502112023 | 73 | 229 | 2.0 | 3.0 | 0.00 | 0.00 | 0.00 | 24 | 1021.5 |
| 20260502111024 | 73 | 68 | 0.0 | 1.0 | 0.00 | 0.00 | 0.00 | 25 | 1022.1 |
| 20260502110034 | 73 | 210 | 3.0 | 4.0 | 0.00 | 0.00 | 0.00 | 24 | 1022.1 |
| 20260502105030 | 72 | 195 | 2.0 | 3.0 | 0.00 | 0.00 | 0.00 | 25 | 1022.1 |
| 20260502104046 | 72 | 214 | 2.0 | 3.0 | 0.00 | 0.00 | 0.00 | 25 | 1022.1 |
| 20260502103030 | 72 | 220 | 1.0 | 3.0 | 0.00 | 0.00 | 0.00 | 26 | 1022.1 |
| 20260502102020 | 72 | 265 | 1.0 | 2.0 | 0.00 | 0.00 | 0.00 | 27 | 1022.1 |
| 20260502101020 | 72 | 238 | 2.0 | 2.0 | 0.00 | 0.00 | 0.00 | 27 | 1022.1 |
| 20260502091036 | 70 | 211 | 2.0 | 5.0 | 0.00 | 0.00 | 0.00 | 32 | 1022.1 |
| 20260502071025 | 64 | 203 | 2.0 | 3.0 | 0.00 | 0.00 | 0.00 | 36 | 1023.1 |
| 20260502070044 | 64 | 213 | 1.0 | 2.0 | 0.00 | 0.00 | 0.00 | 37 | 1023.1 |
| 20260502065019 | 63 | 214 | 1.0 | 2.0 | 0.00 | 0.00 | 0.00 | 37 | 1023.1 |
| 20260502064046 | 62 | 211 | 2.0 | 3.0 | 0.00 | 0.00 | 0.00 | 38 | 1023.1 |
| 20260502063028 | 62 | 219 | 0.0 | 1.0 | 0.00 | 0.00 | 0.00 | 38 | 1023.1 |
| 20260502062015 | 61 | 210 | 1.0 | 2.0 | 0.00 | 0.00 | 0.00 | 38 | 1023.1 |
| 20260502061044 | 61 | 209 | 1.0 | 3.0 | 0.00 | 0.00 | 0.00 | 39 | 1023.1 |
| 20260502060056 | 60 | 211 | 1.0 | 1.0 | 0.00 | 0.00 | 0.00 | 40 | 1023.1 |
| 20260502055020 | 59 | 225 | 0.0 | 1.0 | 0.00 | 0.00 | 0.00 | 40 | 1023.1 |
| 20260502054021 | 58 | 218 | 1.0 | 1.0 | 0.00 | 0.00 | 0.00 | 41 | 1023.1 |
| 20260502053030 | 58 | 0.0 | 0.0 | 0.00 | 0.00 | 0.00 | 41 | 1023.1 | |
| 20260502052034 | 57 | 225 | 0.0 | 1.0 | 0.00 | 0.00 | 0.00 | 42 | 1023.1 |
| 20260502051016 | 56 | 203 | 0.0 | 1.0 | 0.00 | 0.00 | 0.00 | 42 | 1023.1 |
| 20260502050031 | 55 | 203 | 0.0 | 1.0 | 0.00 | 0.00 | 0.00 | 43 | 1023.1 |
| 20260502045026 | 54 | 0.0 | 0.0 | 0.00 | 0.00 | 0.00 | 43 | 1023.1 | |
| 20260502044044 | 54 | 0.0 | 0.0 | 0.00 | 0.00 | 0.00 | 44 | 1023.1 | |
| 20260502043021 | 53 | 0.0 | 0.0 | 0.00 | 0.00 | 0.00 | 45 | 1023.1 | |
| 20260502042018 | 52 | 0.0 | 0.0 | 0.00 | 0.00 | 0.00 | 45 | 1023.1 | |
| 20260502041032 | 52 | 0.0 | 0.0 | 0.00 | 0.00 | 0.00 | 45 | 1023.1 | |
| 20260502040016 | 52 | 0.0 | 0.0 | 0.00 | 0.00 | 0.00 | 45 | 1023.1 | |
| 20260502035041 | 52 | 0.0 | 0.0 | 0.00 | 0.00 | 0.00 | 45 | 1023.1 | |
| 20260502034043 | 51 | 0.0 | 0.0 | 0.00 | 0.00 | 0.00 | 45 | 1023.1 | |
| 20260502033024 | 51 | 0.0 | 0.0 | 0.00 | 0.00 | 0.00 | 44 | 1023.1 | |
| 20260502032021 | 51 | 0.0 | 0.0 | 0.00 | 0.00 | 0.00 | 44 | 1023.1 | |
| 20260502031022 | 51 | 0.0 | 0.0 | 0.00 | 0.00 | 0.00 | 44 | 1023.1 | |
| 20260502030033 | 51 | 0.0 | 0.0 | 0.00 | 0.00 | 0.00 | 43 | 1023.1 | |
| 20260502025016 | 51 | 0.0 | 0.0 | 0.00 | 0.00 | 0.00 | 43 | 1023.1 | |
| 20260502024021 | 51 | 0.0 | 0.0 | 0.00 | 0.00 | 0.00 | 43 | 1023.1 | |
| 20260502023019 | 52 | 0.0 | 0.0 | 0.00 | 0.00 | 0.00 | 43 | 1023.1 | |
| 20260502022124 | 52 | 0.0 | 0.0 | 0.00 | 0.00 | 0.00 | 42 | 1023.1 | |
| 20260502021018 | 52 | 0.0 | 0.0 | 0.00 | 0.00 | 0.00 | 42 | 1023.1 | |
| 20260502020024 | 52 | 0.0 | 0.0 | 0.00 | 0.00 | 0.00 | 42 | 1023.1 | |
| 20260502015017 | 52 | 0.0 | 0.0 | 0.00 | 0.00 | 0.00 | 41 | 1023.1 | |
| 20260502014045 | 53 | 0.0 | 0.0 | 0.00 | 0.00 | 0.00 | 41 | 1023.1 | |
| 20260502013043 | 53 | 0.0 | 0.0 | 0.00 | 0.00 | 0.00 | 41 | 1023.1 | |
| 20260502012025 | 53 | 0.0 | 0.0 | 0.00 | 0.00 | 0.00 | 41 | 1023.1 | |
| 20260502011026 | 54 | 0.0 | 0.0 | 0.00 | 0.00 | 0.00 | 40 | 1023.1 | |
| 20260502010048 | 54 | 0.0 | 0.0 | 0.00 | 0.00 | 0.00 | 40 | 1023.1 | |
| 20260502005053 | 54 | 0.0 | 0.0 | 0.00 | 0.00 | 0.00 | 40 | 1023.1 | |
| 20260502004018 | 54 | 0.0 | 0.0 | 0.00 | 0.00 | 0.00 | 40 | 1023.1 | |
| 20260502003022 | 54 | 0.0 | 0.0 | 0.00 | 0.00 | 0.00 | 40 | 1023.1 | |
| 20260502002017 | 55 | 225 | 0.0 | 1.0 | 0.00 | 0.00 | 0.00 | 39 | 1023.1 |
| 20260502001027 | 55 | 248 | 0.0 | 1.0 | 0.00 | 0.00 | 0.00 | 39 | 1023.1 |
| 20260502000044 | 55 | 248 | 0.0 | 1.0 | 0.00 | 0.00 | 0.00 | 39 | 1023.1 |
| 20260501235115 | 55 | 0.0 | 0.0 | 0.00 | 0.00 | 0.00 | 39 | 1023.1 | |
| 20260501234051 | 55 | 0.0 | 0.0 | 0.00 | 0.00 | 0.00 | 39 | 1023.1 | |
| 20260501233018 | 55 | 0.0 | 0.0 | 0.00 | 0.00 | 0.00 | 39 | 1023.1 | |
| 20260501232042 | 54 | 0.0 | 0.0 | 0.00 | 0.00 | 0.00 | 39 | 1023.1 | |
| 20260501231103 | 54 | 0.0 | 0.0 | 0.00 | 0.00 | 0.00 | 39 | 1023.1 | |
| 20260501230021 | 54 | 0.0 | 0.0 | 0.00 | 0.00 | 0.00 | 39 | 1023.1 | |
| 20260501225035 | 54 | 0.0 | 0.0 | 0.00 | 0.00 | 0.00 | 39 | 1023.1 |